This is the latest recevied weather packets stored in our database for station/object IW3HBX-13. If no packets are shown the sender has not sent any weather packets the latest 10 day(s).
| Time | Temp. | Humidity | Pressure | Rain* | Wind** | Luminosity | Snow |
|---|---|---|---|---|---|---|---|
| 1777672088 | 13.89° C | 53% | 1026.4 hPa | 0 mm | - | 0 W/m² | - |
| 1777671728 | 13.89° C | 53% | 1026.4 hPa | 0 mm | - | 0 W/m² | - |
| 1777671367 | 13.89° C | 49% | 1026.2 hPa | 0 mm | - | 0 W/m² | - |
| 1777671007 | 13.89° C | 50% | 1026.3 hPa | 0 mm | - | 0 W/m² | - |
| 1777670647 | 13.89° C | 52% | 1026.3 hPa | 0 mm | - | 0 W/m² | - |
| 1777670287 | 13.89° C | 52% | 1026.2 hPa | 0 mm | - | 0 W/m² | - |
| 1777669929 | 14.44° C | 50% | 1026.1 hPa | 0 mm | - | 0 W/m² | - |
| 1777669570 | 14.44° C | 49% | 1026.2 hPa | 0 mm | - | 0 W/m² | - |
| 1777668847 | 14.44° C | 48% | 1026.1 hPa | 0 mm | - | 0 W/m² | - |
| 1777668487 | 14.44° C | 50% | 1026.2 hPa | 0 mm | - | 0 W/m² | - |
| 1777668129 | 15° C | 50% | 1026.1 hPa | 0 mm | - | 0 W/m² | - |
| 1777667767 | 15° C | 47% | 1026.1 hPa | 0 mm | - | 0 W/m² | - |
| 1777667407 | 14.44° C | 47% | 1026.1 hPa | 0 mm | - | 0 W/m² | - |
| 1777667048 | 14.44° C | 49% | 1026 hPa | 0 mm | - | 0 W/m² | - |
| 1777666687 | 15° C | 49% | 1026 hPa | 0 mm | - | 0 W/m² | - |
| 1777666327 | 15° C | 47% | 1025.9 hPa | 0 mm | - | 0 W/m² | - |
| 1777665967 | 15° C | 47% | 1026 hPa | 0 mm | - | 0 W/m² | - |
| 1777665247 | 15° C | 46% | 1025.9 hPa | 0 mm | - | 0 W/m² | - |
| 1777664966 | 15° C | 44% | 1025.9 hPa | 0 mm | - | 0 W/m² | - |
| 1777664887 | 15° C | 44% | 1025.9 hPa | 0 mm | - | 0 W/m² | - |
| 1777664530 | 15.56° C | 44% | 1025.9 hPa | 0 mm | - | 0 W/m² | - |
| 1777664168 | 15.56° C | 42% | 1025.7 hPa | 0 mm | - | 0 W/m² | - |
| 1777663807 | 15.56° C | 44% | 1025.7 hPa | 0 mm | - | 0 W/m² | - |
| 1777663447 | 16.11° C | 42% | 1025.7 hPa | 0 mm | - | 0 W/m² | - |
| 1777663087 | 15.56° C | 41% | 1025.7 hPa | 0 mm | - | 0 W/m² | - |
* Rain latest hour (hover to see other rain measurements)
** Current wind speed in m/s (hover to see current wind gust speed)